Change the Weather History Date:

Friday, September 7, 2012

  Actual Average Record
Temperature  
Mean Temperature 77 °F -  
Max Temperature 91 °F 86 °F 106 °F (1925)
Min Temperature 63 °F 58 °F 38 °F (1988)
Cooling Degree Days 12    
Growing Degree Days 27 (Base 50)    
Moisture  
Dew Point 68 °F    
Average Humidity 81    
Maximum Humidity 97    
Minimum Humidity 55    
Precipitation  
Precipitation 0.44 in - - ()
Sea Level Pressure  
Sea Level Pressure 29.81 in    
Wind  
Wind Speed 8 mph (SSW)    
Max Wind Speed 36 mph    
Max Gust Speed 60 mph    
Visibility 9 miles    
Events Rain , Thunderstorm    
Averages and records for this station are not official NWS values.
T = Trace of Precipitation, MM = Missing Value Source: NWS Daily Summary

Daily Weather History Graph

Daily Weather History Graph

Search for Another Location

Airport or City:

Trip Planner

Search our weather history database for the weather conditions in past years. The results will help you decide how hot, cold, wet, or windy it might be!

Date:

Astronomy

Sep. 07, 2012 Rise Set
Actual Time 6:32 AM CDT 7:16 PM CDT
Civil Twilight 6:05 AM CDT 7:42 PM CDT
Nautical Twilight 5:34 AM CDT 8:14 PM CDT
Astronomical Twilight 5:02 AM CDT 8:46 PM CDT
Moon 11:19 PM CDT (9/7) 1:16 PM CDT (9/7)
Length of Visible Light 13h 36m
Length of Day
12h 43m
Waning Gibbous, 58% of the Moon is Illuminated
Sep 7
Waning Gibbous
Sep 8
Last Quarter
Sep 15
New
Sep 22
First Quarter
Sep 29
Full

Hourly Weather History & Observations

Time (CDT) Temp. Heat Index Dew Point Humidity Pressure Visibility Wind Dir Wind Speed Gust Speed Precip Events Conditions
12:52 AM 63.0 °F - 62.1 °F 97% 29.89 in 10.0 mi South 4.6 mph - N/A   Clear
1:52 AM 63.0 °F - 61.0 °F 93% 29.89 in 10.0 mi Calm Calm - 0.01 in   Clear
2:52 AM 63.0 °F - 61.0 °F 93% 29.91 in 10.0 mi Calm Calm - N/A   Clear
3:52 AM 63.0 °F - 62.1 °F 97% 29.89 in 10.0 mi ESE 5.8 mph - N/A   Clear
4:52 AM 63.0 °F - 61.0 °F 93% 29.89 in 10.0 mi SE 5.8 mph - N/A   Clear
5:52 AM 64.0 °F - 61.0 °F 90% 29.89 in 10.0 mi SSE 4.6 mph - N/A   Clear
6:52 AM 64.9 °F - 63.0 °F 93% 29.89 in 10.0 mi SE 3.5 mph - N/A   Clear
7:52 AM 68.0 °F - 64.9 °F 90% 29.89 in 10.0 mi South 5.8 mph - N/A   Partly Cloudy
8:52 AM 73.0 °F - 66.9 °F 81% 29.91 in 10.0 mi South 6.9 mph - N/A   Partly Cloudy
9:52 AM 77.0 °F - 66.9 °F 71% 29.91 in 10.0 mi South 11.5 mph - N/A   Clear
10:52 AM 81.0 °F 83.3 °F 66.9 °F 62% 29.88 in 10.0 mi South 6.9 mph - N/A   Scattered Clouds
11:52 AM 86.0 °F 90.7 °F 70.0 °F 59% 29.85 in 10.0 mi SSW 11.5 mph 21.9 mph N/A   Clear
12:52 PM 87.1 °F 92.0 °F 70.0 °F 57% 29.83 in 10.0 mi South 16.1 mph 23.0 mph N/A   Clear
1:52 PM 89.1 °F 96.0 °F 72.0 °F 57% 29.81 in 10.0 mi SSW 15.0 mph 21.9 mph N/A   Partly Cloudy
2:52 PM 91.0 °F 99.3 °F 73.0 °F 55% 29.77 in 10.0 mi SW 12.7 mph - N/A   Clear
3:52 PM 90.0 °F 96.9 °F 72.0 °F 55% 29.74 in 10.0 mi SW 16.1 mph 20.7 mph N/A   Clear
4:52 PM 87.1 °F 93.6 °F 72.0 °F 61% 29.69 in 10.0 mi SSW 15.0 mph - N/A   Clear
5:52 PM 84.0 °F 90.2 °F 73.0 °F 69% 29.66 in 10.0 mi SSW 9.2 mph - N/A   Partly Cloudy
6:52 PM 82.9 °F 89.4 °F 73.9 °F 74% 29.69 in 8.0 mi SSW 11.5 mph - 0.00 in Rain , Thunderstorm Light Rain
7:14 PM 80.6 °F 85.4 °F 73.4 °F 79% 29.66 in 10.0 mi SSW 10.4 mph - 0.05 in Rain , Thunderstorm Light Rain
7:28 PM 73.4 °F - 69.8 °F 88% 29.73 in 2.5 mi WSW 35.7 mph 59.8 mph 0.12 in Rain , Thunderstorm Thunderstorms and Rain
7:35 PM 71.6 °F - 69.8 °F 94% 29.74 in 1.5 mi West 25.3 mph 51.8 mph 0.21 in Rain , Thunderstorm Heavy Thunderstorms and Rain
7:40 PM 71.6 °F - 68.0 °F 88% 29.75 in 4.0 mi West 20.7 mph 40.3 mph 0.22 in Rain , Thunderstorm Light Thunderstorms and Rain
7:52 PM 72.0 °F - 66.9 °F 84% 29.71 in 9.0 mi WSW 13.8 mph - 0.24 in Rain , Thunderstorm Thunderstorms and Rain
8:25 PM 69.8 °F - 66.2 °F 88% 29.78 in 10.0 mi WNW 8.1 mph - 0.05 in Rain Light Rain
9:21 PM 71.6 °F - 69.8 °F 94% 29.76 in 5.0 mi North 13.8 mph 21.9 mph 0.11 in Rain , Thunderstorm Rain
9:52 PM 71.1 °F - 68.0 °F 90% 29.73 in 10.0 mi NE 5.8 mph - 0.15 in Rain Light Rain
10:52 PM 70.0 °F - 68.0 °F 93% 29.78 in 10.0 mi North 6.9 mph - 0.03 in   Overcast
11:36 PM 69.8 °F - 66.2 °F 88% 29.82 in 4.0 mi North 8.1 mph - 0.01 in Rain Rain
11:47 PM 69.8 °F - 68.0 °F 94% 29.82 in 10.0 mi NNW 6.9 mph - 0.01 in Rain Light Rain
11:52 PM 70.0 °F - 66.9 °F 90% 29.81 in 10.0 mi North 10.4 mph - 0.01 in Rain Light Rain